Weather History for Wadena, MN

Change the Weather History Date:

Monday, December 23, 2013

  Actual Average Record
Temperature  
Mean Temperature -16 °F -  
Max Temperature -7 °F 19 °F 42 °F (1936)
Min Temperature -25 °F 1 °F -33 °F (1983)
Degree Days  
Heating Degree Days 81    
Moisture  
Dew Point -22 °F    
Average Humidity 72    
Maximum Humidity 84    
Minimum Humidity 59    
Precipitation  
Precipitation 0.00 in - - ()
Sea Level Pressure  
Sea Level Pressure 30.39 in    
Wind  
Wind Speed 7 mph (WNW)    
Max Wind Speed 10 mph    
Max Gust Speed -    
Visibility 10 miles    
Events Snow    
Averages and records for this station are not official NWS values.
T = Trace of Precipitation, MM = Missing Value Source: NWS Daily Summary

Daily Weather History Graph

Daily Weather History Graph

Search for Another Location

Airport:

Trip Planner

Search our weather history database for the weather conditions in past years. The results will help you decide how hot, cold, wet, or windy it might be!

Date:

Astronomy

Dec. 23, 2013 Rise Set
Actual Time 8:02 AM CST 4:37 PM CST
Civil Twilight 7:27 AM CST 5:12 PM CST
Nautical Twilight 6:49 AM CST 5:51 PM CST
Astronomical Twilight 6:12 AM CST 6:27 PM CST
Moon 11:09 PM CST (12/23) 11:09 AM CST (12/23)
Length of Visible Light 9h 45m
Length of Day
8h 35m
Waning Gibbous, 68% of the Moon is Illuminated
Dec 23
Waning Gibbous
Dec 25
Last Quarter
Jan 1
New
Jan 7
First Quarter
Jan 15
Full

Hourly Weather History & Observations

Time (CST) Temp. Windchill Dew Point Humidity Pressure Visibility Wind Dir Wind Speed Gust Speed Precip Events Conditions
12:15 AM -7.6 °F -23.4 °F -13.0 °F 77% 30.27 in 5.0 mi NW 8.1 mph - N/A Snow Light Snow
12:35 AM -9.4 °F -22.7 °F -14.8 °F 77% 30.28 in 10.0 mi WNW 5.8 mph - N/A Snow Light Snow
12:53 AM -11.2 °F -29.0 °F -16.6 °F 77% 30.28 in 10.0 mi WNW 9.2 mph - N/A   Mostly Cloudy
1:15 AM -13.0 °F -31.3 °F -18.4 °F 77% 30.29 in 10.0 mi WNW 9.2 mph - N/A   Clear
1:35 AM -13.0 °F -32.4 °F -18.4 °F 77% 30.30 in 10.0 mi WNW 10.4 mph - N/A   Scattered Clouds
1:53 AM -13.0 °F -28.6 °F -18.4 °F 77% 30.30 in 10.0 mi NW 6.9 mph - N/A   Mostly Cloudy
2:15 AM -14.8 °F -32.2 °F -18.4 °F 84% 30.30 in 10.0 mi WNW 8.1 mph - N/A   Mostly Cloudy
2:34 AM -14.8 °F -29.1 °F -18.4 °F 84% 30.31 in 10.0 mi WNW 5.8 mph - N/A Snow Light Snow
2:53 AM -14.8 °F -29.1 °F -18.4 °F 84% 30.32 in 10.0 mi WNW 5.8 mph - N/A Snow Light Snow
3:15 AM -14.8 °F -29.1 °F -18.4 °F 84% 30.32 in 10.0 mi WNW 5.8 mph - N/A   Overcast
3:35 AM -14.8 °F -32.2 °F -20.2 °F 77% 30.32 in 7.0 mi WNW 8.1 mph - N/A Snow Light Snow
3:53 AM -14.8 °F -33.5 °F -20.2 °F 77% 30.33 in 5.0 mi WNW 9.2 mph - N/A   Haze
4:15 AM -14.8 °F -32.2 °F -20.2 °F 77% 30.33 in 10.0 mi WNW 8.1 mph - N/A   Mostly Cloudy
4:35 AM -16.6 °F -35.7 °F -20.2 °F 84% 30.33 in 10.0 mi WNW 9.2 mph - N/A   Scattered Clouds
4:53 AM -16.6 °F -34.4 °F -22.0 °F 76% 30.34 in 10.0 mi WNW 8.1 mph - N/A   Clear
5:15 AM -16.6 °F -34.4 °F -22.0 °F 76% 30.35 in 10.0 mi NW 8.1 mph - N/A   Clear
5:35 AM -18.4 °F -35.1 °F -23.8 °F 76% 30.35 in 10.0 mi NW 6.9 mph - N/A   Clear
5:53 AM -18.4 °F -35.1 °F -23.8 °F 76% 30.36 in 10.0 mi WNW 6.9 mph - N/A   Clear
6:15 AM -18.4 °F -35.1 °F -23.8 °F 76% 30.36 in 10.0 mi WNW 6.9 mph - N/A   Clear
6:35 AM -18.4 °F -31.4 °F -23.8 °F 76% 30.37 in 10.0 mi WNW 4.6 mph - N/A   Clear
6:52 AM -18.4 °F -33.4 °F -23.8 °F 76% 30.38 in 10.0 mi WNW 5.8 mph - N/A   Clear
7:15 AM -18.4 °F -35.1 °F -25.6 °F 70% 30.39 in 10.0 mi WNW 6.9 mph - N/A   Clear
7:35 AM -20.2 °F -35.5 °F -25.6 °F 76% 30.39 in 10.0 mi WNW 5.8 mph - N/A   Clear
7:53 AM -20.2 °F -37.3 °F -25.6 °F 76% 30.40 in 10.0 mi WNW 6.9 mph - N/A   Clear
8:15 AM -20.2 °F -37.3 °F -25.6 °F 76% 30.41 in 10.0 mi West 6.9 mph - N/A   Clear
8:35 AM -20.2 °F -35.5 °F -25.6 °F 76% 30.42 in 10.0 mi West 5.8 mph - N/A   Clear
8:53 AM -20.2 °F -37.3 °F -25.6 °F 76% 30.42 in 10.0 mi WNW 6.9 mph - N/A   Clear
9:15 AM -20.2 °F -38.8 °F -25.6 °F 76% 30.42 in 10.0 mi WNW 8.1 mph - N/A   Clear
9:35 AM -20.2 °F -37.3 °F -25.6 °F 76% 30.43 in 10.0 mi WNW 6.9 mph - N/A   Clear
9:52 AM -18.4 °F -36.6 °F -25.6 °F 70% 30.43 in 10.0 mi WNW 8.1 mph - N/A   Clear
10:15 AM -16.6 °F -35.7 °F -23.8 °F 70% 30.44 in 10.0 mi NW 9.2 mph - N/A   Clear
10:35 AM -16.6 °F -34.4 °F -23.8 °F 70% 30.45 in 10.0 mi NW 8.1 mph - N/A   Clear
10:53 AM -16.6 °F -31.3 °F -23.8 °F 70% 30.44 in 10.0 mi WNW 5.8 mph - N/A   Clear
11:15 AM -14.8 °F -29.1 °F -22.0 °F 70% 30.44 in 10.0 mi WNW 5.8 mph - N/A   Clear
11:25 AM -14.8 °F -29.1 °F -20.2 °F 77% 30.44 in 10.0 mi WNW 5.8 mph - N/A   Clear
11:41 AM -13.0 °F -28.6 °F -20.2 °F 70% 30.43 in 10.0 mi WNW 6.9 mph - N/A   Clear
12:01 PM -11.2 °F -26.4 °F -20.2 °F 64% 30.43 in 10.0 mi NW 6.9 mph - N/A   Clear
12:14 PM -11.2 °F -24.8 °F -18.4 °F 70% 30.43 in 10.0 mi NW 5.8 mph - N/A   Clear
12:34 PM -9.4 °F -25.6 °F -18.4 °F 65% 30.43 in 10.0 mi WNW 8.1 mph - N/A   Clear
12:53 PM -9.4 °F -26.8 °F -18.4 °F 65% 30.42 in 10.0 mi WNW 9.2 mph - N/A   Clear
1:15 PM -7.6 °F -22.1 °F -18.4 °F 59% 30.43 in 10.0 mi WNW 6.9 mph - N/A   Clear
1:35 PM -7.6 °F -23.4 °F -16.6 °F 65% 30.41 in 10.0 mi WNW 8.1 mph - N/A   Clear
1:53 PM -7.6 °F -20.6 °F -16.6 °F 65% 30.41 in 10.0 mi WNW 5.8 mph - N/A   Clear
2:15 PM -7.6 °F -20.6 °F -16.6 °F 65% 30.41 in 10.0 mi WNW 5.8 mph - N/A   Clear
2:35 PM -7.6 °F -20.6 °F -16.6 °F 65% 30.41 in 10.0 mi WNW 5.8 mph - N/A   Clear
2:53 PM -7.6 °F -18.8 °F -16.6 °F 65% 30.41 in 10.0 mi WNW 4.6 mph - N/A   Clear
3:15 PM -7.6 °F -20.6 °F -18.4 °F 59% 30.41 in 10.0 mi West 5.8 mph - N/A   Clear
3:35 PM -7.6 °F -22.1 °F -18.4 °F 59% 30.42 in 10.0 mi West 6.9 mph - N/A   Clear
3:53 PM -7.6 °F -20.6 °F -18.4 °F 59% 30.43 in 10.0 mi West 5.8 mph - N/A   Clear
4:15 PM -9.4 °F -22.7 °F -18.4 °F 65% 30.43 in 10.0 mi West 5.8 mph - N/A   Clear
4:35 PM -9.4 °F -18.6 °F -20.2 °F 59% 30.43 in 10.0 mi West 3.5 mph - N/A   Clear
4:53 PM -11.2 °F -23.0 °F -20.2 °F 64% 30.43 in 10.0 mi West 4.6 mph - N/A   Clear
5:15 PM -11.2 °F -26.4 °F -20.2 °F 64% 30.44 in 10.0 mi West 6.9 mph - N/A   Clear
5:35 PM -13.0 °F -27.0 °F -22.0 °F 64% 30.44 in 10.0 mi West 5.8 mph - N/A   Clear
5:52 PM -13.0 °F -22.7 °F -22.0 °F 64% 30.43 in 10.0 mi West 3.5 mph - N/A   Clear
6:15 PM -14.8 °F -29.1 °F -23.8 °F 64% 30.44 in 10.0 mi West 5.8 mph - N/A   Clear
6:35 PM -14.8 °F -29.1 °F -23.8 °F 64% 30.43 in 10.0 mi West 5.8 mph - N/A   Clear
6:53 PM -14.8 °F -30.8 °F -23.8 °F 64% 30.44 in 10.0 mi West 6.9 mph - N/A   Clear
7:15 PM -16.6 °F -29.3 °F -23.8 °F 70% 30.44 in 10.0 mi West 4.6 mph - N/A   Clear
7:35 PM -16.6 °F -26.8 °F -23.8 °F 70% 30.44 in 10.0 mi West 3.5 mph - N/A   Clear
7:53 PM -18.4 °F -28.9 °F -23.8 °F 76% 30.44 in 10.0 mi West 3.5 mph - N/A   Clear
8:15 PM -18.4 °F - -25.6 °F 70% 30.43 in 10.0 mi Calm Calm - N/A   Clear
8:35 PM -18.4 °F -31.4 °F -25.6 °F 70% 30.43 in 10.0 mi West 4.6 mph - N/A   Clear
8:53 PM -18.4 °F -28.9 °F -25.6 °F 70% 30.42 in 10.0 mi West 3.5 mph - N/A   Clear
9:15 PM -20.2 °F - -25.6 °F 76% 30.41 in 10.0 mi Calm Calm - N/A   Clear
9:35 PM -20.2 °F - -25.6 °F 76% 30.41 in 10.0 mi Calm Calm - N/A   Clear
9:53 PM -22.0 °F - -27.4 °F 76% 30.40 in 10.0 mi Calm Calm - N/A   Clear
10:15 PM -23.8 °F - -27.4 °F 83% 30.38 in 10.0 mi Calm Calm - N/A   Clear
10:35 PM -25.6 °F - -29.2 °F 83% 30.39 in 10.0 mi Calm Calm - N/A   Clear
10:53 PM -23.8 °F - -27.4 °F 83% 30.38 in 10.0 mi Calm Calm - N/A   Clear
11:15 PM -25.6 °F -37.1 °F -31.0 °F 76% 30.39 in 10.0 mi WSW 3.5 mph - N/A   Clear
11:35 PM -23.8 °F - -29.2 °F 76% 30.39 in 10.0 mi Calm Calm - N/A   Clear
11:53 PM -25.6 °F - -29.2 °F 83% 30.38 in 10.0 mi Calm Calm - N/A   Clear